GEFSGL_con_prob3kmehi_150.txt.gz
EHI
0 0 0 0 0 0 0 0 0 0 0 0 0 0 0 0 0 0 0 0 0 0 0 0 0 0 0 0 0 0 0 0 0 0 0 0 0 0 0 0 0 0 0
0 0 0 0 0 0 0 0 0 0 0 0 0 0 0 0 0 0 0 0 0 0 0 0 0 0 0 0 0 0 0 0 0 0 0 0 0 0 0 0 0 0 0
0 0 0 0 0 0 0 0 0 0 0 0 0 0 0 0 0 0 0 0 0 0 0 0 0 0 0 0 0 0 0 0 0 0 0 0 0 0 0 0 0 0 0
0 0 0 0 0 0 0 0 0 0 0 0 0 0 0 0 0 0 0 0 0 0 0 0 0 0 0 0 0 0 0 0 0 0 0 0 0 0 0 0 0 0 0
0 0 0 0 0 0 0 0 0 0 0 0 0 0 0 0 0 0 0 0 0 0 0 0 0 0 0 0 0 0 0 0 0 0 0 0 0 0 0 0 0 0 0
0 0 0 0 0 0 0 0 0 0 0 0 0 0 0 0 0 0 0 0 0 0 0 0 0 0 0 0 0 0 0 0 0 0 0 0 0 0 0 0 0 0 0
1 1 1 1 1 1 0 0 0 0 0 0 0 0 0 0 0 0 0 0 0 0 0 0 0 0 0 0 0 0 0 0 0 0 0 0 0 0 0 0 0 0 0
2 2 2 2 2 2 1 0 0 0 0 0 0 0 0 0 0 0 0 0 0 0 0 0 0 0 0 0 0 0 0 0 0 0 0 0 0 0 0 0 0 0 0
3 3 3 3 3 3 2 1 0 0 0 0 0 0 0 0 0 0 0 0 0 0 0 0 0 0 0 0 0 0 0 0 0 0 0 0 0 0 0 0 0 0 0
3 3 4 3 3 3 3 2 1 0 0 0 0 0 0 0 0 0 0 0 0 0 0 0 0 0 0 0 0 0 0 0 0 0 0 0 0 0 0 0 0 0 0
3 4 4 3 3 3 3 2 1 0 0 0 0 0 0 0 0 0 0 0 0 0 0 0 0 0 0 0 0 0 0 0 0 0 0 0 0 0 0 0 0 0 0
3 3 3 2 2 2 3 2 1 0 0 0 0 0 0 0 0 0 0 0 0 0 0 0 0 0 0 0 0 0 0 0 0 0 0 0 0 0 0 0 0 0 0
3 3 2 1 1 1 1 2 2 1 1 1 2 1 0 0 0 0 0 0 0 0 0 0 0 0 0 0 0 0 0 0 0 0 0 0 0 0 0 0 0 0 0
3 3 2 1 0 0 0 1 2 2 2 3 3 2 1 0 0 0 0 0 0 0 0 0 0 0 0 0 0 0 0 0 0 0 0 0 0 0 0 0 0 0 0
3 3 2 1 0 1 0 0 1 2 2 2 3 3 2 1 0 0 0 0 0 0 0 0 0 0 0 0 0 0 0 0 0 0 0 0 0 0 0 0 0 0 0
3 3 2 1 0 0 0 0 0 1 1 1 1 2 2 1 0 0 0 0 0 0 0 0 0 0 0 0 0 0 0 0 0 0 0 0 0 0 0 0 0 0 0
3 3 2 1 0 0 0 0 0 0 0 0 0 1 1 0 0 0 0 0 0 0 0 0 0 0 0 0 0 0 0 0 0 0 0 0 0 0 0 0 0 0 0
3 2 1 0 0 0 0 0 0 0 0 0 0 0 0 0 0 0 0 0 0 0 0 0 0 0 0 0 0 0 0 0 0 0 0 0 0 0 0 0 0 0 0
2 1 0 0 0 0 0 0 0 0 0 0 0 0 0 0 0 0 0 0 0 0 0 0 0 0 0 0 0 0 0 0 0 0 0 0 0 0 0 0 0 0 0
2 1 0 0 0 0 0 0 0 0 0 0 0 0 0 0 0 0 0 0 0 0 0 0 0 0 0 0 0 0 0 0 0 0 0 0 0 0 0 0 0 0 0
1 0 0 0 0 0 0 0 0 0 0 0 0 0 0 0 0 0 0 0 0 0 0 0 0 0 0 0 0 0 0 0 0 0 0 0 0 0 0 0 0 0 0
0 0 0 0 0 0 0 0 0 0 0 0 0 0 0 0 0 0 0 0 0 0 0 0 0 0 0 0 0 0 0 0 0 0 0 0 0 0 0 0 0 0 0
0 0 0 0 0 0 0 0 0 0 0 0 0 0 0 0 0 0 0 0 0 0 0 0 0 0 0 0 0 0 0 0 0 0 0 0 0 0 0 0 0 0 0
0 0 0 0 0 0 0 0 0 0 0 0 0 0 0 0 0 0 0 0 0 0 0 0 0 0 0 0 0 0 0 0 0 0 0 0 0 0 0 0 0 0 0
0 0 0 0 0 0 0 0 0 0 0 0 0 0 0 0 0 0 0 0 0 0 0 0 0 0 0 0 0 0 0 0 0 0 0 0 0 0 0 0 0 0 0
0 0 0 0 0 0 0 0 0 0 0 0 0 0 0 0 0 0 0 0 0 0 0 0 0 0 0 0 0 0 0 0 0 0 0 0 0 0 0 0 0 0 0

GEFSGL_con_prob3kmehi_156.txt.gz
EHI
8 8 8 7 6 4 4 3 3 3 2 2 3 3 3 2 3 4 3 2 1 2 2 1 1 4 8 11 10 9 11 11 6 4 6 5 4 3 1 2 1 0 0
10 10 9 9 8 6 4 3 4 4 3 3 2 3 2 1 1 3 3 2 2 3 3 2 2 3 6 8 8 8 9 9 6 5 4 5 4 2 1 1 1 0 0
13 12 12 11 11 10 7 5 4 4 3 2 1 1 1 1 0 1 2 3 3 3 3 4 3 2 3 5 6 6 6 6 5 5 4 4 3 2 2 1 1 1 1
14 14 14 13 12 12 9 6 4 3 2 1 1 1 1 0 0 0 1 2 3 4 4 4 3 1 1 3 4 5 4 3 3 3 3 2 2 1 1 1 0 0 0
16 16 16 15 14 13 10 6 3 2 2 2 2 1 0 0 0 0 0 1 3 4 4 4 3 1 0 1 1 3 2 1 1 2 1 1 1 1 0 0 0 0 1
19 19 18 18 17 14 10 6 4 3 3 2 2 1 1 1 0 0 0 1 2 3 4 4 3 2 1 1 0 1 1 0 0 0 0 1 2 2 1 0 0 0 1
24 22 20 19 18 16 11 8 7 5 4 4 3 2 2 2 1 0 0 1 2 3 4 5 4 3 3 2 1 0 0 0 0 0 0 1 2 3 3 1 0 0 1
26 24 21 19 19 16 12 10 9 6 4 4 3 3 3 2 1 0 0 0 2 3 5 5 5 3 3 2 1 1 1 1 0 0 0 0 1 3 4 2 1 0 0
25 24 21 19 17 14 12 12 10 7 4 3 3 3 3 3 1 0 0 1 2 3 4 4 3 2 1 1 1 1 2 2 1 0 0 0 0 1 2 2 1 0 0
23 22 19 16 14 12 11 11 10 7 4 3 3 3 3 3 2 1 1 2 3 3 3 3 2 1 0 0 0 1 2 3 2 1 0 0 0 0 1 1 0 0 0
20 19 16 13 12 12 11 11 9 7 4 3 3 3 3 3 2 1 1 2 3 3 3 3 2 1 0 0 0 1 1 2 2 1 0 0 0 0 0 0 0 0 0
17 16 14 11 10 11 11 10 8 7 5 4 3 3 3 3 2 1 0 1 1 2 3 3 2 1 0 0 0 0 0 1 1 0 0 0 0 0 0 0 0 0 0
13 13 12 10 10 10 10 9 7 6 4 3 3 3 3 3 3 1 0 0 0 1 2 2 2 1 0 0 0 0 0 0 0 0 0 0 0 0 0 0 0 0 0
10 10 10 10 10 10 10 9 6 5 4 3 3 3 3 3 3 2 1 1 0 0 1 1 1 0 0 0 0 0 0 0 0 0 0 0 0 0 0 0 0 0 0
8 8 9 9 9 9 9 8 5 3 2 2 2 2 2 2 2 2 2 1 0 0 0 0 0 0 0 0 0 0 0 0 0 0 0 0 0 0 0 0 0 0 0
7 7 7 7 7 7 7 5 3 1 1 0 0 1 1 1 1 1 1 1 0 0 0 0 0 0 0 0 0 0 0 0 0 0 0 0 0 0 0 0 0 0 0
6 6 5 5 5 5 5 4 2 1 0 0 0 0 0 0 0 0 0 0 0 0 0 0 0 0 0 0 0 0 0 0 0 0 0 0 0 0 0 0 0 0 0
4 4 4 3 4 5 5 4 3 1 0 0 0 0 0 0 0 0 0 0 0 0 0 0 0 0 0 0 0 0 0 0 0 0 0 0 0 0 0 0 0 0 0
3 3 3 3 4 4 3 2 1 1 0 0 0 0 0 0 0 0 0 0 0 0 0 0 0 0 0 0 0 0 0 0 0 0 0 0 0 0 0 0 0 0 0
2 2 2 2 3 2 1 1 0 0 0 0 0 0 0 0 0 0 0 0 0 0 0 0 0 0 0 0 0 0 0 0 0 0 0 0 0 0 0 0 0 0 0
1 1 1 1 1 1 0 0 0 0 0 0 0 0 0 0 0 0 0 0 0 0 0 0 0 0 0 0 0 0 0 0 0 0 0 0 0 0 0 0 0 0 0
0 0 0 0 0 0 0 0 0 0 0 0 0 0 0 0 0 0 0 0 0 0 0 0 0 0 0 0 0 0 0 0 0 0 0 0 0 0 0 0 0 0 0
0 0 0 0 0 0 0 0 0 0 0 0 0 0 0 0 0 0 0 0 0 0 0 0 0 0 0 0 0 0 0 0 0 0 0 0 0 0 0 0 0 0 0
0 0 0 0 0 0 0 0 0 0 0 0 0 0 0 0 0 0 0 0 0 0 0 0 0 0 0 0 0 0 0 0 0 0 0 0 0 0 0 0 0 0 0
0 0 0 0 0 0 0 0 0 0 0 0 0 0 0 0 0 0 0 0 0 0 0 0 0 0 0 0 0 0 0 0 0 0 0 0 0 0 0 0 0 0 0
0 0 0 0 0 0 0 0 0 0 0 0 0 0 0 0 0 0 0 0 0 0 0 0 0 0 0 0 0 0 0 0 0 0 0 0 0 0 0 0 0 0 0

GEFSGL_con_prob3kmehi_162.txt.gz
EHI
32 29 25 25 27 28 26 21 16 12 10 12 13 15 16 15 12 9 5 4 4 3 2 1 1 3 3 3 4 4 4 4 2 1 1 3 5 6 6 5 5 2 1
31 30 28 27 28 26 23 20 18 16 13 13 15 17 16 14 10 6 4 3 2 2 2 2 2 2 2 2 3 3 3 2 1 1 2 4 5 7 7 6 4 2 1
32 33 32 30 28 24 20 18 20 22 20 17 18 18 16 13 8 5 4 3 3 3 4 5 4 2 1 2 3 3 2 1 1 1 3 4 4 5 7 6 4 2 1
37 36 35 32 27 23 20 19 20 22 22 19 18 16 13 9 6 4 5 5 4 4 4 5 5 3 3 3 3 3 3 2 1 1 1 3 3 4 5 5 3 2 2
42 39 34 30 26 22 21 21 20 18 18 18 16 12 8 6 3 3 5 6 6 6 5 4 4 3 3 3 3 3 3 3 2 1 0 1 2 3 4 4 2 2 3
45 40 32 28 27 23 21 21 21 18 17 17 13 9 6 3 1 1 3 5 7 7 6 5 4 3 3 3 2 2 2 2 2 2 1 0 1 2 4 3 2 2 2
45 40 32 29 28 25 21 21 21 19 18 16 13 9 7 4 1 0 1 4 6 7 7 6 4 2 2 3 3 2 2 2 2 2 1 0 0 1 3 3 3 3 2
43 40 33 28 27 26 23 21 21 19 17 16 13 11 9 5 2 1 1 3 5 6 6 5 4 3 3 3 3 3 3 2 2 1 1 0 0 0 1 2 3 3 3
42 38 32 28 26 25 23 21 20 18 15 14 12 11 10 7 3 1 0 2 5 6 6 5 4 3 3 3 3 3 3 3 2 0 0 0 0 0 0 1 2 2 2
40 37 32 28 26 23 21 19 17 15 13 12 10 10 11 8 4 1 0 2 5 7 6 4 3 2 2 2 3 3 3 3 2 1 0 0 0 0 0 0 1 1 1
39 36 30 26 22 20 18 17 15 13 12 11 10 10 11 8 4 1 0 1 5 6 5 4 2 1 1 1 1 2 2 3 3 2 1 0 0 0 0 0 0 0 0
33 30 25 21 18 16 15 14 14 13 13 11 10 10 9 7 4 2 1 1 3 4 4 3 2 1 0 0 0 1 1 1 3 3 2 1 0 0 0 0 0 0 0
23 22 19 17 15 13 12 12 12 12 13 12 11 9 7 6 4 2 1 0 1 1 2 1 1 0 0 0 0 0 0 1 2 2 2 1 0 0 0 0 0 0 0
18 17 16 14 13 12 11 11 11 10 10 11 12 10 7 4 3 1 0 0 0 0 1 1 1 0 0 0 0 0 0 0 1 1 1 0 0 0 0 0 0 0 0
17 16 15 12 10 10 9 7 7 5 5 8 10 9 6 3 1 0 0 0 0 0 0 1 2 1 0 0 0 0 0 0 0 0 0 0 0 0 0 0 0 0 0
16 15 13 10 9 7 6 4 2 1 1 2 3 3 3 1 0 0 0 0 0 0 0 1 1 1 0 0 0 0 0 0 0 0 0 0 0 0 0 0 0 0 0
13 12 10 9 8 6 6 5 3 1 0 0 0 0 0 0 0 0 0 0 0 0 0 0 0 0 0 0 0 0 0 0 0 0 0 0 0 0 0 0 0 0 0
11 10 9 8 7 7 7 7 5 3 1 0 0 0 0 0 0 0 0 0 0 0 0 0 0 0 0 0 0 0 0 0 0 0 0 0 0 0 0 0 0 0 0
9 8 7 7 7 7 7 7 6 4 3 1 0 0 0 0 0 0 0 0 0 0 0 0 0 0 0 0 0 0 0 0 0 0 0 0 0 0 0 0 0 0 0
6 5 4 4 5 6 6 5 4 4 4 2 0 0 0 0 0 0 0 0 0 0 0 0 0 0 0 0 0 0 0 0 0 0 0 0 0 0 0 0 0 0 0
4 3 2 2 3 3 3 2 3 4 3 1 0 0 0 0 0 0 0 0 0 0 0 0 0 0 0 0 0 0 0 0 0 0 0 0 0 0 0 0 0 0 0
2 2 2 2 1 1 1 0 1 2 1 1 0 0 0 0 0 0 0 0 0 0 0 0 0 0 0 0 0 0 0 0 0 0 0 0 0 0 0 0 0 0 0
0 1 1 1 1 0 0 0 0 0 1 1 0 0 0 0 0 0 0 0 0 0 0 0 0 0 0 0 0 0 0 0 0 0 0 0 0 0 0 0 0 0 0
0 0 0 0 0 0 0 0 0 0 0 0 0 0 0 0 0 0 0 0 0 0 0 0 0 0 0 0 0 0 0 0 0 0 0 0 0 0 0 0 0 0 0
0 0 0 0 0 0 0 0 0 0 0 0 0 0 0 0 0 0 0 0 0 0 0 0 0 0 0 0 0 0 0 0 0 0 0 0 0 0 0 0 0 0 0
0 0 0 0 0 0 0 0 0 0 0 0 0 0 0 0 0 0 0 0 0 0 0 0 0 0 0 0 0 0 0 0 0 0 0 0 0 0 0 0 0 0 0

GEFSGL_con_prob3kmehi_168.txt.gz
EHI
10 9 7 5 3 2 1 0 0 0 0 0 0 0 0 0 0 0 0 0 0 0 0 0 0 0 0 0 0 0 0 0 0 0 0 0 0 0 0 0 0 0 0
10 9 7 5 4 4 3 2 2 2 1 1 1 0 0 0 0 0 0 0 0 0 0 0 0 0 0 0 0 0 0 0 0 0 0 0 0 0 0 0 0 0 0
10 10 7 5 5 5 5 5 4 4 3 2 1 0 0 0 0 0 0 0 0 0 0 0 0 0 0 0 0 0 0 0 0 0 0 0 0 0 0 0 0 0 0
11 10 8 6 6 6 6 6 5 4 3 2 1 0 0 0 0 0 0 0 0 0 0 0 0 0 0 0 0 0 0 0 0 0 0 0 0 0 0 0 0 0 0
14 12 9 7 7 6 6 6 5 4 3 1 0 0 0 0 0 0 0 0 0 0 0 0 0 0 0 0 0 0 0 0 0 0 0 0 0 0 0 0 0 0 0
17 13 9 7 7 6 6 6 6 6 5 3 1 1 0 0 0 0 0 0 0 0 0 0 0 0 0 0 0 0 0 0 0 0 0 0 0 0 0 0 0 0 0
16 12 9 7 7 6 6 6 6 6 6 4 4 3 2 0 0 0 0 0 0 0 0 0 0 0 0 0 0 0 0 0 0 0 0 0 0 0 0 0 0 0 0
15 11 8 7 7 6 6 6 6 6 6 6 6 5 3 1 0 0 0 0 0 0 0 0 0 0 0 0 0 0 0 0 0 0 0 0 0 0 0 0 0 0 0
14 11 9 8 7 7 7 7 7 7 7 7 6 6 4 2 1 0 0 0 0 0 0 0 0 0 0 0 0 0 0 0 0 0 0 0 0 0 0 0 0 0 0
11 11 10 8 7 8 8 8 8 8 8 8 7 6 5 4 2 1 0 0 0 0 0 0 0 0 0 0 0 0 0 0 0 0 0 0 0 0 0 0 0 0 0
9 9 8 7 7 7 7 7 7 8 9 9 8 7 6 4 2 1 0 0 0 0 0 0 0 0 0 0 0 0 0 0 0 0 0 0 0 0 0 0 0 0 0
9 9 7 6 5 6 6 6 7 7 7 8 9 8 5 3 1 0 0 0 0 0 0 0 0 0 0 0 0 0 0 0 0 0 0 0 0 0 0 0 0 0 0
8 7 6 5 4 4 5 6 6 6 6 7 7 6 4 1 0 0 0 0 0 0 0 0 0 0 0 0 0 0 0 0 0 0 0 0 0 0 0 0 0 0 0
6 6 5 4 3 3 4 5 6 6 5 5 5 5 3 1 0 0 0 0 0 0 0 0 0 0 0 0 0 0 0 0 0 0 0 0 0 0 0 0 0 0 0
6 5 4 3 3 3 3 4 5 4 4 4 4 5 4 2 1 0 0 0 0 0 0 0 0 0 0 0 0 0 0 0 0 0 0 0 0 0 0 0 0 0 0
6 4 3 3 3 2 2 3 4 3 3 2 3 4 4 2 1 0 0 0 0 0 0 0 0 0 0 0 0 0 0 0 0 0 0 0 0 0 0 0 0 0 0
5 4 3 3 2 1 1 2 3 3 2 1 1 2 2 1 0 0 0 0 0 0 0 0 0 0 0 0 0 0 0 0 0 0 0 0 0 0 0 0 0 0 0
3 3 3 3 2 1 0 1 2 3 2 1 0 1 1 0 0 0 0 0 0 0 0 0 0 0 0 0 0 0 0 0 0 0 0 0 0 0 0 0 0 0 0
1 2 2 2 2 1 0 0 1 2 3 2 1 0 0 0 0 0 0 0 0 0 0 0 0 0 0 0 0 0 0 0 0 0 0 0 0 0 0 0 0 0 0
0 1 1 1 1 0 0 0 0 1 3 2 1 0 0 0 0 0 0 0 0 0 0 0 0 0 0 0 0 0 0 0 0 0 0 0 0 0 0 0 0 0 0
0 0 0 0 0 0 0 0 0 1 2 2 1 0 0 0 0 0 0 0 0 0 0 0 0 0 0 0 0 0 0 0 0 0 0 0 0 0 0 0 0 0 0
0 0 0 0 0 0 0 0 0 0 1 1 0 0 0 0 0 0 0 0 0 0 0 0 0 0 0 0 0 0 0 0 0 0 0 0 0 0 0 0 0 0 0
0 0 0 0 0 0 0 0 0 0 0 0 0 0 0 0 0 0 0 0 0 0 0 0 0 0 0 0 0 0 0 0 0 0 0 0 0 0 0 0 0 0 0
0 0 0 0 0 0 0 0 0 0 0 0 0 0 0 0 0 0 0 0 0 0 0 0 0 0 0 0 0 0 0 0 0 0 0 0 0 0 0 0 0 0 0
0 0 0 0 0 0 0 0 0 0 0 0 0 0 0 0 0 0 0 0 0 0 0 0 0 0 0 0 0 0 0 0 0 0 0 0 0 0 0 0 0 0 0
0 0 0 0 0 0 0 0 0 0 0 0 0 0 0 0 0 0 0 0 0 0 0 0 0 0 0 0 0 0 0 0 0 0 0 0 0 0 0 0 0 0 0

GEFSGL_con_prob3kmehi_174.txt.gz
EHI
7 7 6 4 1 0 0 1 2 2 2 1 0 0 0 0 0 0 0 0 0 0 0 0 0 0 0 0 0 0 0 0 0 0 0 0 0 0 0 0 0 0 0
7 7 5 4 2 1 0 0 1 1 1 0 0 0 0 0 0 0 0 0 0 0 0 0 0 0 0 0 0 0 0 0 0 0 0 0 0 0 0 0 0 0 0
6 5 4 3 3 2 1 0 0 0 0 0 1 1 0 0 0 0 0 0 0 0 0 0 0 0 0 0 0 0 0 0 0 0 0 0 0 0 0 0 0 0 0
5 3 2 1 2 2 1 0 0 0 0 1 2 1 0 0 0 0 0 0 0 0 0 0 0 0 0 0 0 0 0 0 0 0 0 0 0 0 0 0 0 0 0
5 3 1 0 1 1 1 0 0 0 0 1 2 2 1 1 0 0 0 0 0 0 0 0 0 0 0 0 0 0 0 0 0 0 0 0 0 0 0 0 0 0 0
5 4 2 1 0 0 0 0 0 0 0 1 2 2 2 2 1 0 0 0 0 0 0 0 0 0 0 0 0 0 0 0 0 0 0 0 0 0 0 0 0 0 0
5 4 3 2 2 1 1 1 1 2 1 1 2 3 3 3 2 1 0 0 0 0 0 0 0 0 0 0 0 0 0 0 0 0 0 0 0 0 0 0 0 0 0
6 4 3 4 4 3 2 2 3 3 3 3 3 3 3 3 2 1 0 0 0 0 0 0 0 0 0 0 0 0 0 0 0 0 0 0 0 0 0 0 0 0 0
7 5 4 4 3 2 2 2 3 3 3 3 3 3 3 3 2 1 0 0 0 0 0 0 0 0 0 0 0 0 0 0 0 0 0 0 0 0 0 0 0 0 0
7 6 5 4 1 1 1 1 1 2 3 3 3 3 3 3 3 1 0 1 1 0 0 0 0 0 0 0 0 0 0 0 0 0 0 0 0 0 0 0 0 0 0
7 7 6 4 1 0 0 0 0 1 2 2 2 2 3 3 3 2 1 1 1 1 1 0 0 0 0 0 0 0 0 0 0 0 0 0 0 0 0 0 0 0 0
8 8 6 4 2 1 0 0 0 1 2 2 2 2 2 2 3 2 1 1 1 2 2 1 0 0 0 0 0 0 0 0 0 0 0 0 0 0 0 0 0 0 0
6 6 6 4 3 2 1 0 1 2 3 3 2 2 2 2 1 2 1 0 0 1 1 1 0 0 0 0 0 0 0 0 0 0 0 0 0 0 0 0 0 0 0
4 5 5 4 3 3 2 1 1 2 3 2 2 3 3 2 1 1 1 1 1 0 0 0 0 0 0 0 0 0 0 0 0 0 0 0 0 0 0 0 0 0 0
3 4 4 4 3 3 3 2 2 2 1 1 1 1 2 2 1 0 1 1 1 0 0 0 0 0 0 0 0 0 0 0 0 0 0 0 0 0 0 0 0 0 0
3 4 4 4 3 3 3 1 1 1 0 0 0 0 1 1 0 0 0 1 1 0 0 0 0 0 0 0 0 0 0 0 0 0 0 0 0 0 0 0 0 0 0
3 4 4 4 3 3 2 1 0 0 0 0 0 0 0 0 0 0 0 0 0 0 1 1 1 0 0 0 0 0 0 0 0 0 0 0 0 0 0 0 0 0 0
3 3 3 3 2 1 1 1 0 0 0 0 0 0 0 0 0 0 0 0 0 0 1 1 1 0 0 0 0 0 0 0 0 0 0 0 0 0 0 0 0 0 0
2 1 1 1 1 0 0 0 0 0 0 0 0 0 0 0 0 0 0 0 0 0 0 0 0 0 0 0 0 0 0 0 0 0 0 0 0 0 0 0 0 0 0
1 1 1 0 0 0 0 0 0 0 0 0 0 0 0 0 0 0 0 0 0 0 0 0 0 0 0 0 0 0 0 0 0 0 0 0 0 0 0 0 0 0 0
0 0 0 0 0 0 0 0 0 0 0 0 0 0 0 0 0 0 0 0 0 0 0 0 0 0 0 0 0 0 0 0 0 0 0 0 0 0 0 0 0 0 0
0 0 0 0 0 0 0 0 0 0 0 0 0 0 0 0 0 0 0 0 0 0 0 0 0 0 0 0 0 0 0 0 0 0 0 0 0 0 0 0 0 0 0
0 0 0 0 0 0 0 0 0 0 0 0 0 0 0 0 0 0 0 0 0 0 0 0 0 0 0 0 0 0 0 0 0 0 0 0 0 0 0 0 0 0 0
0 0 0 0 0 0 0 0 0 0 0 0 0 0 0 0 0 0 0 0 0 0 0 0 0 0 0 0 0 0 0 0 0 0 0 0 0 0 0 0 0 0 0
0 0 0 0 0 0 0 0 0 0 0 0 0 0 0 0 0 0 0 0 0 0 0 0 0 0 0 0 0 0 0 0 0 0 0 0 0 0 0 0 0 0 0
0 0 0 0 0 0 0 0 0 0 0 0 0 0 0 0 0 0 0 0 0 0 0 0 0 0 0 0 0 0 0 0 0 0 0 0 0 0 0 0 0 0 0

GEFSGL_con_prob3kmehi_180.txt.gz
EHI
16 15 13 12 11 10 8 6 6 6 6 4 4 6 8 9 10 10 8 6 5 4 2 0 0 1 4 5 4 4 6 5 3 1 1 2 2 1 1 1 1 1 1
19 17 14 11 9 7 5 4 4 6 6 5 4 4 6 7 9 10 9 6 5 5 3 1 0 1 3 4 3 4 6 5 3 2 2 3 2 1 1 1 0 0 0
21 20 15 11 8 6 4 4 5 6 7 5 4 3 4 5 7 9 9 8 7 6 5 3 2 2 3 3 3 3 4 4 3 3 3 4 2 0 0 0 0 0 0
23 22 19 16 12 9 7 8 9 8 6 4 3 3 3 4 5 7 8 10 10 8 6 5 4 3 3 2 2 2 2 3 3 3 4 4 1 0 0 0 0 0 0
25 24 22 21 17 13 12 13 13 9 4 2 2 3 3 3 3 4 6 8 8 6 5 5 4 3 2 1 1 0 1 2 3 3 4 3 1 0 0 0 0 0 0
29 28 26 24 20 17 14 13 12 9 6 4 4 4 4 3 2 1 2 4 4 5 5 5 4 3 2 1 0 0 0 1 2 3 3 3 2 2 2 2 1 0 0
30 28 26 24 21 18 15 12 9 9 9 7 6 5 4 3 2 0 0 1 3 4 5 4 3 3 3 2 1 1 0 0 1 1 2 3 4 5 4 3 1 1 1
29 26 22 20 19 18 15 11 8 8 8 6 4 4 4 3 1 0 0 1 3 4 4 4 3 3 3 3 3 2 1 1 0 1 2 2 3 5 4 3 2 2 2
27 24 20 18 18 20 17 12 10 8 6 4 3 2 2 2 1 0 0 2 5 5 4 3 3 3 3 3 3 3 3 2 1 0 1 1 1 2 1 1 2 3 3
24 23 21 20 20 20 17 13 10 9 7 5 4 2 1 1 1 1 0 2 4 5 5 4 4 3 2 2 2 3 3 3 2 1 0 0 0 0 0 0 1 1 2
22 22 23 22 20 18 15 12 10 9 7 5 4 3 2 3 2 1 0 1 3 4 4 4 4 2 1 0 1 2 2 2 2 1 0 0 0 0 0 0 0 0 1
21 21 22 21 18 15 12 10 8 7 5 3 3 3 3 3 3 2 0 0 1 2 3 2 1 1 0 0 0 1 1 1 1 1 0 0 0 0 0 0 0 0 0
17 18 18 17 15 13 11 8 6 4 4 3 3 3 3 3 3 2 1 0 0 1 1 1 0 0 0 0 0 0 0 0 0 0 0 0 0 0 0 0 0 0 0
15 16 16 13 11 10 9 6 4 3 3 3 3 3 3 3 3 3 2 1 1 1 1 0 0 0 0 0 0 0 0 0 0 0 0 0 0 0 0 0 0 0 0
14 15 15 12 9 7 6 4 3 3 3 2 3 3 3 3 3 2 2 2 1 1 1 0 0 0 0 0 0 0 0 0 0 0 0 0 0 0 0 0 0 0 0
14 15 14 12 8 6 4 3 2 2 1 1 1 2 2 2 1 1 1 1 1 0 0 0 0 0 0 0 0 0 0 0 0 0 0 0 0 0 0 0 0 0 0
13 12 11 9 7 6 4 3 3 2 1 0 0 1 1 1 0 0 0 0 0 0 0 0 0 0 0 0 0 0 0 0 0 0 0 0 0 0 0 0 0 0 0
8 7 7 6 6 6 4 3 3 3 2 1 1 0 0 0 0 0 0 0 0 0 0 0 0 0 0 0 0 0 0 0 0 0 0 0 0 0 0 0 0 0 0
4 3 4 5 5 4 3 3 3 3 2 2 1 0 0 0 0 0 0 0 0 0 0 0 0 0 0 0 0 0 0 0 0 0 0 0 0 0 0 0 0 0 0
2 1 2 2 2 1 1 1 2 2 1 1 1 0 0 0 0 0 0 0 0 0 0 0 0 0 0 0 0 0 0 0 0 0 0 0 0 0 0 0 0 0 0
1 0 0 0 0 0 0 0 1 1 0 0 0 0 0 0 0 0 0 0 0 0 0 0 0 0 0 0 0 0 0 0 0 0 0 0 0 0 0 0 0 0 0
0 0 0 0 0 0 0 0 0 0 0 0 0 0 0 0 0 0 0 0 0 0 0 0 0 0 0 0 0 0 0 0 0 0 0 0 0 0 0 0 0 0 0
0 0 0 0 0 0 0 0 0 0 0 0 0 0 0 0 0 0 0 0 0 0 0 0 0 0 0 0 0 0 0 0 0 0 0 0 0 0 0 0 0 0 0
0 0 0 0 0 0 0 0 0 0 0 0 0 0 0 0 0 0 0 0 0 0 0 0 0 0 0 0 0 0 0 0 0 0 0 0 0 0 0 0 0 0 0
0 0 0 0 0 0 0 0 0 0 0 0 0 0 0 0 0 0 0 0 0 0 0 0 0 0 0 0 0 0 0 0 0 0 0 0 0 0 0 0 0 0 0
0 0 0 0 0 0 0 0 0 0 0 0 0 0 0 0 0 0 0 0 0 0 0 0 0 0 0 0 0 0 0 0 0 0 0 0 0 0 0 0 0 0 0

GEFSGL_con_prob3kmehi_186.txt.gz
EHI
45 42 39 36 34 31 28 23 21 23 24 24 23 20 19 18 19 21 18 13 11 14 15 14 12 9 8 10 11 9 7 7 5 6 9 10 12 12 9 7 4 2 1
46 45 42 39 37 34 29 24 22 24 25 24 23 20 16 14 16 18 15 11 11 15 16 14 11 9 9 11 11 11 10 8 7 6 7 8 10 10 10 7 3 1 2
46 46 44 41 39 37 32 26 23 25 25 23 22 19 15 13 14 13 11 10 11 12 14 13 12 11 12 11 10 10 9 7 7 6 5 6 7 8 7 5 3 2 1
45 45 43 41 39 37 34 31 27 26 25 21 19 17 16 14 12 9 8 8 9 9 11 12 11 11 11 9 7 7 6 5 5 4 4 5 6 5 4 3 2 2 1
46 44 43 41 39 37 36 35 32 29 25 20 17 14 13 11 7 5 5 5 7 8 9 10 8 7 7 5 5 5 4 4 4 3 4 4 4 4 3 2 1 1 1
47 45 44 42 40 39 39 36 32 28 25 22 17 13 9 5 2 1 2 3 4 6 7 7 5 3 3 3 3 3 3 3 3 3 5 5 4 3 3 1 0 0 1
49 47 45 44 43 42 41 37 33 28 26 23 19 14 8 4 1 0 1 2 3 4 5 5 3 1 1 2 2 2 2 2 2 3 4 5 5 4 3 2 1 0 0
49 47 45 44 43 43 43 41 36 30 26 23 20 15 9 5 2 0 1 3 3 3 4 4 2 1 1 2 3 4 3 3 2 2 3 4 4 4 3 2 1 0 0
45 45 45 43 41 42 43 42 37 30 26 23 19 15 11 6 3 1 1 3 3 3 3 3 3 2 2 2 3 4 5 4 4 3 3 2 2 1 1 2 1 0 0
42 42 42 41 39 39 39 39 35 30 25 22 18 15 11 7 3 1 1 3 3 3 3 3 3 3 2 1 1 3 4 4 4 4 2 1 1 1 1 1 1 1 0
39 38 37 36 34 32 34 35 33 28 24 20 16 13 10 6 3 2 1 2 3 3 3 3 3 3 1 0 1 2 2 2 3 3 2 1 2 2 2 2 1 1 0
37 36 33 29 25 25 29 31 29 25 23 19 14 10 7 4 3 3 1 1 2 3 3 3 3 2 1 0 0 1 1 1 1 2 2 2 2 2 3 2 1 0 0
38 36 31 25 22 21 24 25 23 20 18 15 11 7 5 3 3 3 2 1 1 2 3 3 2 1 0 0 0 0 0 0 0 1 1 1 1 1 2 2 1 0 0
37 35 30 26 22 19 18 16 15 13 11 10 7 5 4 3 3 3 2 2 1 1 2 2 2 1 0 0 0 0 0 0 0 0 0 0 0 0 1 1 0 0 0
31 30 29 27 22 16 12 9 7 6 5 5 4 3 2 2 2 1 1 1 1 2 2 3 3 2 1 1 0 0 0 0 0 0 0 0 0 0 0 0 0 0 0
25 25 25 23 19 13 8 6 4 3 2 1 1 1 1 1 1 0 0 0 1 1 1 2 3 3 2 1 0 0 0 0 0 0 0 0 0 0 0 0 0 0 0
19 18 17 16 14 11 7 5 3 2 0 0 0 0 0 0 0 0 0 0 0 0 0 1 2 2 2 1 0 0 0 0 0 0 0 0 0 0 0 0 0 0 0
11 11 11 11 10 8 6 4 3 1 0 0 0 0 0 0 0 0 0 0 0 0 0 0 1 1 1 0 0 0 0 0 0 0 0 0 0 0 0 0 0 0 0
6 7 8 8 7 6 4 3 2 1 0 0 0 0 0 0 0 0 0 0 0 0 0 0 0 0 0 0 0 0 0 0 0 0 0 0 0 0 0 0 0 0 0
5 4 5 6 4 3 3 2 1 0 0 0 0 0 0 0 0 0 0 0 0 0 0 0 0 0 0 0 0 0 0 0 0 0 0 0 0 0 0 0 0 0 0
3 2 2 3 2 2 2 2 1 0 0 0 0 0 0 0 0 0 0 0 0 0 0 0 0 0 0 0 0 0 0 0 0 0 0 0 0 0 0 0 0 0 0
1 0 0 1 2 2 2 1 1 0 0 0 0 0 0 0 0 0 0 0 0 0 0 0 0 0 0 0 0 0 0 0 0 0 0 0 0 0 0 0 0 0 0
0 0 0 0 1 1 1 0 0 0 0 0 0 0 0 0 0 0 0 0 0 0 0 0 0 0 0 0 0 0 0 0 0 0 0 0 0 0 0 0 0 0 0
0 0 1 0 0 0 0 0 0 0 0 0 0 0 0 0 0 0 0 0 0 0 0 0 0 0 0 0 0 0 0 0 0 0 0 0 0 0 0 0 0 0 0
0 0 0 0 0 0 0 0 0 0 0 0 0 0 0 0 0 0 0 0 0 0 0 0 0 0 0 0 0 0 0 0 0 0 0 0 0 0 0 0 0 0 0
0 0 0 0 0 0 0 0 0 0 0 0 0 0 0 0 0 0 0 0 0 0 0 0 0 0 0 0 0 0 0 0 0 0 0 0 0 0 0 0 0 0 0

GEFSGL_con_prob3kmehi_192.txt.gz
EHI
26 21 17 16 13 10 9 7 6 5 4 5 5 4 2 1 1 1 1 2 2 1 1 2 3 3 3 3 3 2 2 2 1 0 0 0 0 0 0 0 0 0 0
25 21 17 15 13 11 9 8 7 6 5 5 5 4 3 2 2 2 2 3 3 2 2 3 3 3 3 3 2 1 1 1 1 0 0 0 0 0 0 0 0 0 0
26 23 19 16 14 12 10 8 7 6 5 5 5 4 4 3 3 3 3 3 3 3 3 3 3 3 2 1 1 0 0 0 1 1 0 0 0 0 0 0 0 0 0
26 25 21 17 14 13 11 9 7 5 4 5 5 5 4 3 3 4 4 4 3 3 3 3 3 2 1 0 0 0 0 0 1 1 1 1 0 0 0 0 0 0 0
25 24 20 16 13 11 10 9 7 6 5 5 6 5 4 3 3 3 4 3 3 3 3 2 1 1 0 0 0 0 0 0 0 0 0 0 0 0 0 0 0 0 0
24 21 17 15 12 8 7 6 6 5 5 5 6 4 3 3 3 3 3 3 2 2 1 1 0 0 0 0 0 0 0 0 0 0 0 0 0 0 0 0 0 0 0
24 20 16 14 12 8 6 5 4 4 5 6 6 4 3 3 3 3 2 1 1 1 0 0 0 0 0 0 0 0 0 0 0 0 0 0 0 0 0 0 0 0 0
24 21 17 14 13 12 9 6 4 5 4 5 5 4 3 3 3 3 1 0 0 0 0 0 0 0 0 0 0 0 0 0 0 0 0 0 0 0 0 0 0 0 0
25 22 16 13 12 12 10 7 5 5 4 4 4 4 4 4 4 3 1 0 0 0 0 0 0 0 0 0 0 0 0 0 0 0 0 0 0 0 0 0 0 0 0
23 19 14 11 9 9 8 6 5 5 4 4 4 5 5 5 5 3 1 0 0 0 1 1 1 0 0 0 0 0 0 0 0 0 0 0 0 0 0 0 0 0 0
20 17 12 11 10 8 7 6 5 5 5 5 4 5 5 4 3 2 0 0 0 1 1 1 1 0 0 0 0 0 0 0 0 0 0 0 0 0 0 0 0 0 0
19 17 15 14 13 11 9 6 4 4 5 5 4 4 3 1 1 0 0 0 0 1 1 1 1 0 0 0 0 0 0 0 0 0 0 0 0 0 0 0 0 0 0
18 17 16 16 14 12 9 7 4 3 3 4 3 1 1 0 0 0 0 0 0 0 0 0 0 0 0 0 0 0 0 0 0 0 0 0 0 1 0 0 0 0 0
15 14 14 14 12 8 6 5 4 3 4 3 1 0 0 0 0 0 0 0 0 0 0 0 0 0 0 0 0 0 0 0 0 0 0 0 0 0 0 0 0 0 0
13 12 12 10 8 4 2 2 2 2 4 3 1 0 0 0 0 0 0 0 0 0 0 0 0 0 0 0 0 0 0 0 0 0 0 0 0 0 0 0 0 0 0
11 11 10 8 5 2 0 0 0 1 1 1 0 0 0 0 0 0 0 0 0 0 0 0 0 0 0 0 0 0 0 0 0 0 0 0 0 0 0 0 0 0 0
10 9 8 6 3 1 0 0 0 0 0 0 0 0 0 0 0 0 0 0 0 0 0 0 0 0 0 0 0 0 0 0 0 0 0 0 0 0 0 0 0 0 0
9 8 7 6 3 1 0 0 0 0 0 0 0 0 0 0 0 0 0 0 0 0 0 0 0 0 0 0 0 0 0 0 0 0 0 0 0 0 0 0 0 0 0
6 6 6 6 4 2 1 0 0 0 0 0 0 0 0 0 0 0 0 0 0 0 0 0 0 0 0 0 0 0 0 0 0 0 0 0 0 0 0 0 0 0 0
3 3 4 4 4 3 2 1 0 0 0 0 0 0 0 0 0 0 0 0 0 0 0 0 0 0 0 0 0 0 0 0 0 0 0 0 0 0 0 0 0 0 0
1 1 1 2 2 3 3 2 0 0 0 0 0 0 0 0 0 0 0 0 0 0 0 0 0 0 0 0 0 0 0 0 0 0 0 0 0 0 0 0 0 0 0
0 0 0 0 1 1 2 1 0 0 0 0 0 0 0 0 0 0 0 0 0 0 0 0 0 0 0 0 0 0 0 0 0 0 0 0 0 0 0 0 0 0 0
0 0 0 0 0 0 0 0 0 0 0 0 0 0 0 0 0 0 0 0 0 0 0 0 0 0 0 0 0 0 0 0 0 0 0 0 0 0 0 0 0 0 0
0 0 0 0 0 0 0 0 0 0 0 0 0 0 0 0 0 0 0 0 0 0 0 0 0 0 0 0 0 0 0 0 0 0 0 0 0 0 0 0 0 0 0
0 0 0 0 0 0 0 0 0 0 0 0 0 0 0 0 0 0 0 0 0 0 0 0 0 0 0 0 0 0 0 0 0 0 0 0 0 0 0 0 0 0 0
0 0 0 0 0 0 0 0 0 0 0 0 0 0 0 0 0 0 0 0 0 0 0 0 0 0 0 0 0 0 0 0 0 0 0 0 0 0 0 0 0 0 0

GEFSGL_con_prob3kmehi_198.txt.gz
EHI
9 9 8 5 2 1 1 0 0 0 0 0 0 1 1 1 0 0 0 0 0 0 0 0 0 0 0 0 0 0 0 0 0 0 0 0 0 0 0 0 0 0 0
8 8 7 5 3 2 1 1 1 1 0 0 0 0 0 0 0 0 0 0 0 0 0 0 0 0 0 0 0 0 0 0 0 0 0 0 0 0 0 0 0 0 0
7 7 6 5 3 2 1 1 1 1 0 0 0 0 0 0 0 0 0 0 0 0 0 0 0 0 0 0 0 0 0 0 0 0 0 0 0 0 0 0 0 0 0
8 7 6 4 2 1 0 0 1 1 0 0 0 0 0 0 0 0 0 0 0 0 0 0 0 0 0 0 0 0 0 0 0 0 0 0 0 0 0 0 0 0 0
9 8 6 3 1 1 0 0 1 1 1 0 0 0 0 0 0 0 0 0 0 0 0 0 0 0 0 0 0 0 0 0 0 0 0 0 0 0 0 0 0 0 0
11 9 6 3 2 2 1 1 1 2 1 0 0 0 0 0 0 0 0 0 0 0 0 0 0 0 0 0 0 0 0 0 0 0 0 0 0 0 0 0 0 0 0
12 10 7 5 3 2 2 2 2 1 1 0 1 1 1 0 0 0 0 0 0 0 0 0 0 0 0 0 0 0 0 0 0 0 0 0 0 0 0 0 0 0 0
12 12 9 5 3 2 1 1 1 1 0 0 1 2 1 0 0 0 0 0 0 0 0 0 0 0 0 0 0 0 0 0 0 0 0 0 0 0 0 0 0 0 0
11 11 9 5 3 3 2 1 0 0 0 0 0 1 1 0 0 0 0 0 0 0 0 0 0 0 0 0 0 0 0 0 0 0 0 0 0 0 0 0 0 0 0
10 10 8 5 3 3 3 2 1 0 0 0 0 1 2 1 0 0 0 0 0 0 0 1 0 0 0 0 0 0 0 0 0 0 0 0 0 0 0 0 0 0 0
10 10 7 4 3 3 3 3 2 1 0 0 1 2 2 1 0 0 0 0 0 0 0 0 0 0 0 0 0 0 0 0 0 0 0 0 0 0 0 0 0 0 0
9 8 5 4 3 4 4 4 3 1 0 0 1 2 1 1 0 0 0 0 0 0 0 0 0 0 0 0 0 0 0 0 0 0 0 0 0 0 0 0 0 0 0
7 5 4 3 4 4 5 6 5 2 0 0 1 1 0 0 0 0 0 0 0 0 0 0 0 0 0 0 0 0 0 0 0 0 0 0 0 0 0 0 0 0 0
5 4 3 3 4 5 6 6 5 3 1 0 0 0 0 0 0 0 0 0 0 0 0 0 0 0 0 0 0 0 0 0 0 0 0 0 0 0 0 0 0 0 0
5 4 3 4 5 5 5 3 2 1 0 0 0 0 0 0 0 0 0 0 0 0 0 0 0 0 0 0 0 0 0 0 0 0 0 0 0 0 0 0 0 0 0
5 5 4 3 4 4 2 0 0 0 0 0 0 0 0 0 0 0 0 0 0 0 0 0 0 0 0 0 0 0 0 0 0 0 0 0 0 0 0 0 0 0 0
6 4 3 3 3 2 1 0 0 0 0 0 0 0 0 0 0 0 0 0 0 0 0 0 0 0 0 0 0 0 0 0 0 0 0 0 0 0 0 0 0 0 0
5 4 3 3 2 1 0 0 0 0 0 0 0 0 0 0 0 0 0 0 0 0 0 0 0 0 0 0 0 0 0 0 0 0 0 0 0 0 0 0 0 0 0
5 4 3 2 1 0 0 0 0 0 0 0 0 0 0 0 0 0 0 0 0 0 0 0 0 0 0 0 0 0 0 0 0 0 0 0 0 0 0 0 0 0 0
3 3 2 1 0 0 0 0 0 0 0 0 0 0 0 0 0 0 0 0 0 0 0 0 0 0 0 0 0 0 0 0 0 0 0 0 0 0 0 0 0 0 0
1 1 1 0 0 0 0 0 0 0 0 0 0 0 0 0 0 0 0 0 0 0 0 0 0 0 0 0 0 0 0 0 0 0 0 0 0 0 0 0 0 0 0
0 0 0 0 0 0 0 0 0 0 0 0 0 0 0 0 0 0 0 0 0 0 0 0 0 0 0 0 0 0 0 0 0 0 0 0 0 0 0 0 0 0 0
0 0 0 0 0 0 0 0 0 0 0 0 0 0 0 0 0 0 0 0 0 0 0 0 0 0 0 0 0 0 0 0 0 0 0 0 0 0 0 0 0 0 0
0 0 0 0 0 0 0 0 0 0 0 0 0 0 0 0 0 0 0 0 0 0 0 0 0 0 0 0 0 0 0 0 0 0 0 0 0 0 0 0 0 0 0
0 0 0 0 0 0 0 0 0 0 0 0 0 0 0 0 0 0 0 0 0 0 0 0 0 0 0 0 0 0 0 0 0 0 0 0 0 0 0 0 0 0 0
0 0 0 0 0 0 0 0 0 0 0 0 0 0 0 0 0 0 0 0 0 0 0 0 0 0 0 0 0 0 0 0 0 0 0 0 0 0 0 0 0 0 0

GEFSGL_con_prob3kmehi_204.txt.gz
EHI
25 24 21 18 18 20 19 16 13 12 12 11 10 9 9 11 13 12 7 3 2 2 2 1 1 3 6 8 8 7 8 8 5 5 4 4 3 2 1 1 1 2 2
24 24 21 19 20 20 18 14 11 10 10 9 8 9 9 11 11 9 5 2 2 2 2 2 1 3 8 11 10 8 7 7 6 6 6 7 7 5 3 2 1 2 3
24 24 22 22 23 21 17 13 10 8 8 8 8 8 9 9 8 5 3 2 2 3 4 3 2 5 9 12 11 8 6 6 7 8 8 9 9 8 6 4 3 3 3
25 25 25 25 24 20 16 14 11 9 10 10 9 9 8 8 5 2 2 2 3 4 5 4 4 5 8 9 9 8 7 5 6 8 9 8 8 9 8 5 4 3 2
27 26 26 26 24 20 17 16 14 13 14 13 11 9 7 6 3 1 1 1 3 4 5 5 5 5 5 5 5 6 6 5 5 5 6 6 6 7 7 4 3 2 2
29 28 27 27 24 21 20 20 18 18 19 16 11 7 5 3 1 0 0 1 2 4 4 4 4 5 4 3 2 2 3 4 4 3 3 3 4 4 4 3 2 2 2
32 31 30 28 26 25 25 24 24 23 22 19 12 7 4 2 1 1 0 0 2 3 4 4 5 6 6 4 2 1 1 1 2 2 2 3 3 3 3 3 2 3 3
35 33 30 28 26 27 28 27 26 26 24 21 15 10 6 3 2 1 0 1 3 4 5 7 8 7 6 5 3 2 2 1 1 1 2 2 2 2 2 3 3 3 3
35 32 29 25 23 25 28 28 26 25 24 21 18 13 7 3 1 0 1 2 4 5 7 8 8 6 4 2 1 1 2 2 1 1 1 1 0 1 1 1 2 2 2
33 31 28 26 24 25 27 26 24 23 21 18 16 12 7 2 0 0 1 3 5 6 7 7 5 3 2 1 0 0 1 1 1 0 0 0 0 0 0 0 1 1 1
33 31 30 29 27 26 27 25 23 20 18 16 14 11 6 3 1 1 1 2 5 6 5 4 3 1 1 0 0 0 0 0 0 0 0 0 0 0 0 0 0 0 0
31 30 30 30 30 27 26 23 20 18 17 16 14 10 7 4 3 1 1 1 2 4 4 3 2 1 0 0 0 0 0 0 0 0 0 0 0 0 0 0 0 0 0
28 29 28 28 28 26 23 20 17 16 16 16 14 10 7 5 3 2 1 0 0 1 2 2 1 0 0 0 0 0 0 0 0 0 0 0 0 0 0 0 0 0 0
28 28 27 24 22 21 18 15 13 13 13 13 12 10 6 4 3 3 2 1 1 0 1 1 0 0 0 0 0 0 0 0 0 0 0 0 0 0 0 0 0 0 0
28 27 23 18 15 15 13 11 11 10 9 9 9 8 5 3 3 2 2 2 1 0 0 0 0 0 0 0 0 0 0 0 0 0 0 0 0 0 0 0 0 0 0
26 23 16 12 12 11 10 10 9 7 5 4 5 4 3 2 1 1 1 1 1 0 0 0 0 0 0 0 0 0 0 0 0 0 0 0 0 0 0 0 0 0 0
22 18 13 10 10 10 10 10 8 5 2 1 1 1 1 1 0 0 0 0 0 0 0 0 0 0 0 0 0 0 0 0 0 0 0 0 0 0 0 0 0 0 0
17 15 11 10 10 10 10 10 9 6 3 1 0 0 0 0 0 0 0 0 0 0 0 0 0 0 0 0 0 0 0 0 0 0 0 0 0 0 0 0 0 0 0
14 12 10 10 10 10 10 9 9 7 5 2 1 0 0 0 0 0 0 0 0 0 0 0 0 0 0 0 0 0 0 0 0 0 0 0 0 0 0 0 0 0 0
12 11 9 9 9 9 9 8 6 5 4 3 1 0 0 0 0 0 0 0 0 0 0 0 0 0 0 0 0 0 0 0 0 0 0 0 0 0 0 0 0 0 0
10 8 7 7 7 6 6 5 4 3 3 3 1 0 0 0 0 0 0 0 0 0 0 0 0 0 0 0 0 0 0 0 0 0 0 0 0 0 0 0 0 0 0
7 7 6 5 4 3 3 3 2 2 2 2 1 0 0 0 0 0 0 0 0 0 0 0 0 0 0 0 0 0 0 0 0 0 0 0 0 0 0 0 0 0 0
6 5 4 3 2 1 1 1 1 1 1 1 1 0 0 0 0 0 0 0 0 0 0 0 0 0 0 0 0 0 0 0 0 0 0 0 0 0 0 0 0 0 0
5 3 1 1 1 0 0 0 0 0 0 0 0 0 0 0 0 0 0 0 0 0 0 0 0 0 0 0 0 0 0 0 0 0 0 0 0 0 0 0 0 0 0
3 2 0 0 0 0 0 0 0 0 0 0 0 0 0 0 0 0 0 0 0 0 0 0 0 0 0 0 0 0 0 0 0 0 0 0 0 0 0 0 0 0 0
1 1 0 0 0 0 0 0 0 0 0 0 0 0 0 0 0 0 0 0 0 0 0 0 0 0 0 0 0 0 0 0 0 0 0 0 0 0 0 0 0 0 0

GEFSGL_con_prob3kmehi_210.txt.gz
EHI
51 50 48 44 40 38 39 36 31 24 17 15 17 16 13 9 8 9 9 7 5 4 5 6 6 6 7 6 6 7 6 4 3 5 7 8 7 7 7 8 7 4 2
55 54 51 46 42 39 38 34 30 24 18 16 16 16 14 10 8 8 8 7 5 2 3 4 4 5 7 7 6 6 4 3 3 5 7 7 6 7 7 7 6 3 2
57 55 52 49 45 40 35 30 28 24 18 16 17 17 17 14 10 9 9 9 6 3 2 3 3 4 6 7 5 4 3 2 3 4 6 6 6 6 6 4 3 3 2
55 54 52 49 44 38 32 28 26 24 21 19 19 20 19 16 13 10 10 9 9 6 4 5 4 3 4 5 3 2 2 3 4 4 5 5 5 4 3 2 2 2 3
54 52 50 46 40 34 31 29 28 27 26 24 23 22 19 15 12 9 8 9 10 8 5 5 4 3 3 3 2 1 1 4 5 5 4 4 4 3 2 1 0 1 2
51 48 46 43 38 34 32 32 32 31 30 28 27 23 18 11 7 5 6 8 9 6 3 2 2 2 2 3 2 1 1 3 5 5 5 4 3 2 1 0 0 0 1
50 47 44 42 40 36 34 35 36 35 34 31 29 25 18 10 3 1 3 6 6 4 1 1 0 1 1 2 3 2 1 1 2 4 4 3 2 1 1 0 0 0 0
50 48 45 44 42 39 37 37 38 38 36 34 29 25 18 9 2 0 1 3 4 3 2 1 0 0 0 1 3 3 3 2 1 2 2 1 1 0 0 0 0 0 0
48 47 46 45 43 41 39 38 38 37 36 32 27 23 18 10 3 0 1 2 3 3 3 1 1 1 0 1 2 3 4 4 1 0 0 0 0 0 0 0 0 0 0
43 45 47 46 43 41 39 37 35 34 32 28 24 21 17 11 4 1 1 2 3 4 4 3 2 1 0 0 2 3 4 3 1 0 0 0 0 0 0 0 0 0 0
40 43 46 45 41 37 36 35 32 30 28 26 23 19 16 11 6 3 1 2 4 5 5 4 3 1 0 0 1 2 2 2 1 0 0 0 0 0 0 0 0 0 0
37 39 40 39 36 33 32 30 28 26 25 24 22 19 15 11 7 4 1 1 3 4 4 3 2 1 0 0 0 1 1 1 1 0 0 0 0 0 0 0 0 0 0
33 33 33 33 33 31 28 26 24 23 21 20 20 18 16 12 8 5 2 0 1 2 2 2 1 1 0 0 0 0 0 0 0 0 0 0 0 0 0 0 0 0 0
30 28 28 31 31 28 25 23 21 18 16 16 17 17 16 13 9 5 3 2 1 1 1 1 1 0 0 0 0 0 0 0 0 0 0 0 0 0 0 0 0 0 0
27 26 26 29 30 26 22 18 15 13 12 13 14 14 14 12 8 5 4 3 3 3 2 2 2 1 0 0 0 0 0 0 0 0 0 0 0 0 0 0 0 0 0
26 25 25 25 25 23 19 14 10 8 8 8 9 10 10 7 4 3 2 2 3 3 3 3 3 2 1 0 0 0 0 0 0 0 0 0 0 0 0 0 0 0 0
25 24 21 19 19 19 18 14 9 6 4 4 4 5 5 2 1 1 0 1 1 1 3 3 3 3 1 1 0 0 0 0 0 0 0 0 0 0 0 0 0 0 0
21 19 16 15 16 18 19 16 11 7 5 3 2 2 1 0 0 0 0 1 1 1 2 3 3 3 3 2 1 0 0 0 0 0 0 0 0 0 0 0 0 0 0
18 15 13 13 15 17 17 15 11 9 7 5 2 1 0 0 0 0 1 2 2 1 1 2 2 3 3 2 1 0 0 0 0 0 0 0 0 0 0 0 0 0 0
17 13 10 11 13 16 16 13 10 9 7 5 3 2 1 0 0 0 1 2 2 1 1 1 1 2 2 1 0 0 0 0 0 0 0 0 0 0 0 0 0 0 0
16 12 9 10 13 16 16 12 9 8 6 5 4 2 1 1 1 1 0 1 1 1 0 0 0 1 1 0 0 0 0 0 0 0 0 0 0 0 0 0 0 0 0
15 12 10 10 13 15 13 10 9 9 7 5 4 2 1 1 2 1 0 0 0 0 0 0 0 0 0 0 0 0 0 0 0 0 0 0 0 0 0 0 0 0 0
14 11 9 10 11 11 9 7 8 8 7 5 3 2 1 1 1 0 0 0 0 0 0 0 0 0 0 0 0 0 0 0 0 0 0 0 0 0 0 0 0 0 0
11 9 7 8 9 9 7 7 7 7 5 3 2 1 0 0 0 0 0 0 0 0 0 0 0 0 0 0 0 0 0 0 0 0 0 0 0 0 0 0 0 0 0
9 7 7 7 8 8 6 6 6 5 3 1 1 0 0 0 0 0 0 0 0 0 0 0 0 0 0 0 0 0 0 0 0 0 0 0 0 0 0 0 0 0 0
7 7 7 8 8 7 5 4 4 4 2 1 0 0 0 0 0 0 0 0 0 0 0 0 0 0 0 0 0 0 0 0 0 0 0 0 0 0 0 0 0 0 0

GEFSGL_con_prob3kmehi_216.txt.gz
EHI
17 15 14 13 12 12 11 9 8 7 6 4 3 3 2 2 2 1 0 0 0 0 0 0 0 0 0 0 0 0 0 0 0 0 0 0 0 0 0 0 0 0 0
21 19 16 14 13 12 11 10 9 7 5 4 3 3 2 1 1 0 0 0 0 0 0 0 0 0 0 0 0 0 0 0 0 0 0 0 0 0 0 0 0 0 0
27 25 20 16 14 12 11 10 9 8 5 3 4 4 2 0 0 0 0 0 0 0 0 0 0 0 0 0 0 0 0 0 0 0 0 0 0 0 0 0 0 0 0
29 28 23 17 12 10 9 9 9 8 5 3 3 3 2 0 0 0 0 0 0 0 0 0 0 0 0 0 0 0 0 0 0 0 0 0 0 0 0 0 0 0 0
26 26 21 13 9 8 8 8 8 7 6 4 2 1 1 1 0 0 0 0 0 0 0 0 0 0 0 0 0 0 0 0 0 0 0 0 0 0 0 0 0 0 0
21 19 15 9 7 7 9 10 9 7 6 5 2 1 2 1 0 0 0 0 0 0 0 0 0 0 0 0 0 0 0 0 0 0 0 0 0 0 0 0 0 0 0
17 15 12 9 8 9 11 12 12 9 7 6 4 3 2 1 0 0 0 0 0 0 0 0 0 0 0 0 0 0 0 0 0 0 0 0 0 0 0 0 0 0 0
18 16 14 12 11 11 12 14 13 11 9 8 6 4 3 1 0 0 0 0 0 0 0 0 0 0 0 0 0 0 0 0 0 0 0 0 0 0 0 0 0 0 0
22 21 19 17 14 13 12 13 13 12 11 10 7 6 4 2 1 0 0 0 0 0 0 0 0 0 0 0 0 0 0 0 0 0 0 0 0 0 0 0 0 0 0
28 27 23 20 17 15 13 12 11 10 10 9 8 6 4 3 2 1 0 0 0 0 0 0 0 0 0 0 0 0 0 0 0 0 0 0 0 0 0 0 0 0 0
32 29 25 20 16 14 12 11 9 8 8 9 8 5 3 3 3 1 0 0 0 1 1 1 0 0 0 0 0 0 0 0 0 0 0 0 0 0 0 0 0 0 0
30 27 23 18 14 12 10 9 7 7 7 8 7 5 3 3 3 2 1 0 0 1 2 2 1 0 0 0 0 0 0 0 0 0 0 0 0 0 0 0 0 0 0
24 23 21 19 16 12 9 7 6 6 7 7 6 4 4 4 4 3 1 0 0 1 2 2 1 0 0 0 0 0 0 0 0 0 0 0 0 0 0 0 0 0 0
20 21 22 21 19 14 9 7 5 5 5 5 5 5 5 6 5 4 2 1 0 0 1 1 0 0 0 0 0 0 0 0 0 0 0 0 0 0 0 0 0 0 0
20 21 22 22 20 15 10 6 4 3 2 3 4 5 6 6 5 3 2 1 0 0 0 0 0 0 0 0 0 0 0 0 0 0 0 0 0 0 0 0 0 0 0
21 21 22 21 18 14 9 5 3 2 1 1 2 4 5 5 4 2 1 0 0 0 0 0 0 0 0 0 0 0 0 0 0 0 0 0 0 0 0 0 0 0 0
19 20 20 18 14 11 8 6 5 3 2 1 1 1 3 3 2 0 0 0 0 0 0 1 1 1 1 0 0 0 0 0 0 0 0 0 0 0 0 0 0 0 0
14 14 14 13 10 8 7 6 6 6 5 3 1 0 1 1 0 0 0 0 0 0 1 2 2 2 2 1 0 0 0 0 0 0 0 0 0 0 0 0 0 0 0
8 6 6 8 7 6 6 6 6 6 6 5 3 1 0 0 0 0 0 0 0 1 1 3 3 3 2 1 0 0 0 0 0 0 0 0 0 0 0 0 0 0 0
3 2 2 4 4 5 6 6 6 6 6 6 4 2 1 0 0 0 0 0 0 1 2 2 2 2 1 0 0 0 0 0 0 0 0 0 0 0 0 0 0 0 0
2 1 1 2 3 4 5 6 6 6 6 6 5 2 1 0 0 0 0 0 0 1 2 1 1 1 0 0 0 0 0 0 0 0 0 0 0 0 0 0 0 0 0
3 2 1 2 4 4 4 6 6 6 6 6 4 1 0 0 0 0 0 0 0 0 0 0 0 0 0 0 0 0 0 0 0 0 0 0 0 0 0 0 0 0 0
5 3 2 4 5 4 4 6 6 6 6 5 3 1 0 0 0 0 0 0 0 0 0 0 0 0 0 0 0 0 0 0 0 0 0 0 0 0 0 0 0 0 0
5 4 5 6 6 4 4 6 6 6 6 4 3 2 0 0 0 0 0 0 0 0 0 0 0 0 0 0 0 0 0 0 0 0 0 0 0 0 0 0 0 0 0
4 5 6 7 6 5 5 6 6 6 5 4 3 1 0 0 0 0 0 0 0 0 0 0 0 0 0 0 0 0 0 0 0 0 0 0 0 0 0 0 0 0 0
2 4 6 7 6 6 6 6 6 6 5 4 2 1 0 0 0 0 0 0 0 0 0 0 0 0 0 0 0 0 0 0 0 0 0 0 0 0 0 0 0 0 0

GEFSGL_con_prob3kmehi_222.txt.gz
EHI
5 5 5 6 7 8 8 7 5 4 3 3 1 0 0 0 0 0 0 0 0 0 0 0 0 0 0 0 0 0 0 0 0 0 0 0 0 0 0 0 0 0 0
6 4 3 4 5 6 6 4 3 3 3 3 2 1 0 0 0 0 0 0 0 0 0 0 0 0 0 0 0 0 0 0 0 0 0 0 0 0 0 0 0 0 0
6 4 2 1 1 2 3 2 1 2 2 2 2 1 0 0 0 0 0 0 0 0 0 0 0 0 0 0 0 0 0 0 0 0 0 0 0 0 0 0 0 0 0
6 4 2 0 0 1 1 1 0 1 1 1 1 0 0 0 0 0 0 0 0 0 0 0 0 0 0 0 0 0 0 0 0 0 0 0 0 0 0 0 0 0 0
8 6 3 1 0 0 0 0 0 0 0 1 1 1 0 0 0 0 0 0 0 0 0 0 0 0 0 0 0 0 0 0 0 0 0 0 0 0 0 0 0 0 0
9 8 6 3 1 0 0 1 1 0 0 1 1 1 0 0 0 0 0 0 0 0 0 0 0 0 0 0 0 0 0 0 0 1 1 1 0 0 0 0 0 0 0
12 12 10 7 4 2 1 2 1 0 0 0 1 1 0 0 0 0 0 0 0 0 0 0 0 0 0 0 0 0 0 0 0 1 2 2 1 0 0 0 0 0 0
16 16 14 11 8 5 4 2 1 0 0 0 0 0 0 0 0 0 0 0 0 0 0 0 0 0 0 0 0 0 0 0 0 1 2 2 1 0 0 0 0 0 0
16 17 16 14 11 9 7 4 2 1 0 0 0 0 0 0 0 0 0 0 0 0 0 0 0 0 0 0 0 0 0 0 0 0 1 1 1 0 0 0 0 0 0
15 16 17 16 13 10 10 7 5 3 2 2 1 1 1 1 0 0 0 0 0 0 0 0 0 0 0 0 0 0 0 0 0 0 0 0 0 0 0 0 0 0 0
13 16 17 16 12 10 10 10 7 5 5 5 4 3 2 2 1 0 0 0 0 0 0 0 0 0 0 0 0 0 0 0 0 0 0 0 0 0 0 0 0 0 0
12 15 17 15 11 9 10 9 6 5 6 6 6 4 3 2 1 0 0 0 0 0 0 0 0 0 0 0 0 0 0 0 0 0 0 0 0 0 0 0 0 0 0
13 15 16 14 11 10 9 7 6 5 5 6 6 5 4 2 1 0 0 0 0 0 1 0 0 0 0 0 0 0 0 0 0 0 0 0 0 0 0 0 0 0 0
11 11 12 10 10 11 10 8 7 6 6 6 6 6 3 1 0 0 0 0 0 0 0 0 0 0 0 0 0 0 0 0 0 0 0 0 0 0 0 0 0 0 0
6 7 7 7 8 11 10 8 5 5 5 5 5 5 3 1 0 0 0 0 1 0 0 0 0 0 0 0 0 0 0 0 0 0 0 0 0 0 0 0 0 0 0
4 4 4 5 8 11 11 7 3 2 2 2 3 3 1 0 0 0 0 0 0 0 0 0 0 0 0 0 0 0 0 0 0 0 0 0 0 0 0 0 0 0 0
3 3 4 5 7 10 9 6 3 1 1 1 1 1 0 0 0 0 0 0 0 0 0 0 0 0 0 0 0 0 0 0 0 0 0 0 0 0 0 0 0 0 0
4 4 4 5 6 7 6 4 2 2 2 2 1 0 0 0 0 0 0 0 0 0 0 0 0 0 1 1 1 1 1 1 0 0 0 0 0 0 0 0 0 0 0
5 5 6 5 4 4 3 2 1 2 3 3 2 2 1 0 0 0 0 1 2 1 1 1 1 1 2 2 2 2 2 1 0 0 0 0 0 0 0 0 0 0 0
4 5 5 4 3 3 2 1 0 1 2 3 3 4 4 2 2 1 1 2 3 3 3 3 2 3 3 3 3 3 3 2 0 0 0 0 0 0 0 0 0 0 0
2 2 2 3 3 3 2 1 0 0 1 1 2 4 4 4 4 4 4 4 4 4 5 4 3 3 3 3 3 3 3 2 1 0 0 0 0 0 0 0 0 0 0
1 1 1 1 2 2 1 0 0 0 0 0 1 2 3 4 4 5 6 6 6 6 6 5 4 3 3 3 3 3 3 2 1 0 0 0 0 0 0 0 0 0 0
0 0 0 0 1 1 0 0 0 0 0 0 0 1 2 3 3 4 5 6 6 6 6 4 3 3 3 3 3 3 3 2 1 0 0 0 0 0 0 0 0 0 0
0 0 0 0 0 0 0 0 0 0 0 0 0 1 2 3 3 3 4 6 6 6 5 3 2 2 2 2 2 2 2 1 0 0 0 0 0 0 0 0 0 0 0
0 0 0 0 0 0 0 0 0 1 0 0 0 1 3 4 3 3 4 6 6 6 3 1 1 1 1 1 1 1 1 0 0 0 0 0 0 0 0 0 0 0 0
0 0 0 0 0 0 0 0 0 1 0 0 1 2 3 4 4 3 4 6 6 5 2 0 0 0 0 0 0 0 0 0 0 0 0 0 0 0 0 0 0 0 0

GEFSGL_con_prob3kmehi_228.txt.gz
EHI
22 20 17 14 13 11 10 11 13 17 19 19 19 17 15 12 10 10 10 11 11 10 8 7 7 6 5 4 3 3 3 4 4 3 1 1 1 1 1 1 1 1 1
23 22 20 18 15 12 10 11 13 16 18 19 19 18 16 14 12 11 11 11 11 9 8 8 7 6 5 4 4 4 3 4 5 4 2 2 2 2 2 2 1 0 0
22 22 22 19 15 12 11 11 13 15 18 18 17 16 16 15 14 13 13 12 9 8 8 9 9 7 6 5 5 4 4 4 4 4 3 4 4 3 3 2 2 2 2
18 19 20 17 12 11 10 10 11 13 14 13 12 12 14 14 14 15 15 13 9 7 8 9 8 6 4 5 5 4 4 3 3 3 3 4 5 5 5 4 5 5 5
15 16 16 14 11 9 8 8 9 10 9 9 8 8 10 9 10 12 13 12 10 10 9 8 6 4 3 3 3 3 3 3 3 3 3 4 6 7 6 6 6 6 5
14 15 15 14 14 11 8 9 10 10 11 10 8 8 8 6 5 5 7 9 10 11 10 7 4 4 3 1 1 1 2 3 3 3 3 4 5 6 6 6 6 4 2
15 15 16 17 17 15 13 13 15 16 17 16 12 9 8 5 2 1 2 4 7 10 9 6 5 4 3 2 1 0 0 1 1 2 3 3 4 4 5 5 4 3 2
17 17 18 19 20 20 19 19 20 21 21 19 14 10 7 5 2 1 1 3 7 9 9 7 6 5 3 3 2 1 1 0 0 1 2 3 3 3 4 4 3 3 3
17 18 19 20 21 22 23 23 22 21 20 17 13 10 6 4 3 1 1 4 7 10 10 8 6 4 3 3 3 3 2 1 0 0 1 2 2 1 2 4 4 3 3
18 20 22 23 24 24 25 25 22 19 17 15 12 10 8 6 3 1 1 4 7 9 10 7 4 3 2 2 3 3 3 2 1 1 2 2 2 1 2 3 3 3 3
19 21 25 25 24 24 25 25 22 19 16 15 13 11 10 8 4 1 1 3 5 7 7 5 3 1 1 1 2 3 3 2 2 2 3 3 3 3 3 3 3 3 3
19 21 24 25 23 23 26 25 23 20 17 15 15 13 11 9 6 2 1 2 3 4 5 3 1 0 0 0 1 2 1 1 3 4 4 4 3 3 3 4 3 3 3
20 22 23 23 22 23 26 27 24 21 18 16 15 14 12 10 7 3 1 1 1 3 3 2 0 0 0 0 0 0 0 1 3 4 4 4 4 3 4 4 3 2 1
21 21 21 22 21 22 24 25 24 23 21 17 14 13 12 11 10 6 2 1 1 1 2 1 0 0 0 0 0 0 0 1 3 4 4 4 3 3 3 3 1 1 0
20 18 18 19 20 21 21 20 20 20 18 14 11 10 11 11 10 7 4 2 1 1 1 2 1 0 0 0 0 0 1 2 3 3 3 3 3 3 3 1 0 0 0
20 18 16 18 20 20 18 15 14 13 9 6 6 6 8 8 6 3 2 1 1 0 1 2 2 1 0 0 0 1 2 3 3 3 3 3 3 3 2 1 0 0 0
19 17 16 17 18 18 16 15 12 8 4 2 2 2 3 3 1 0 0 0 0 0 1 3 3 1 0 0 1 1 3 3 3 3 3 3 3 3 2 1 0 0 0
15 15 15 16 15 14 14 13 10 7 6 4 2 0 0 0 0 0 0 0 1 1 3 4 4 3 2 1 2 3 3 3 3 3 3 3 3 3 2 1 0 0 0
12 12 14 14 12 12 12 9 7 7 7 6 4 1 0 0 0 0 0 1 3 4 5 6 6 5 5 4 3 4 3 3 3 3 3 3 3 3 3 1 0 0 0
11 10 10 11 10 9 8 5 4 5 6 4 3 2 1 0 1 1 1 3 5 6 6 6 6 6 6 5 5 5 4 3 3 3 3 3 3 3 3 2 0 0 0
9 7 6 7 7 5 3 2 3 4 4 2 2 2 1 0 1 2 3 4 6 6 6 6 6 6 6 6 6 5 4 3 3 3 3 3 3 3 3 1 0 0 0
7 6 6 5 4 2 1 2 4 5 4 2 2 2 1 0 1 2 3 5 6 6 6 6 6 6 6 6 6 6 4 3 3 3 3 3 3 3 2 1 0 0 0
5 5 4 4 3 2 2 3 4 4 2 1 1 1 1 0 0 1 2 4 5 6 6 6 6 6 6 6 6 6 4 3 3 3 3 3 3 2 1 0 0 0 0
3 3 3 3 3 3 2 2 2 1 1 0 1 2 1 0 0 0 1 2 4 5 6 6 6 6 6 6 6 6 4 3 3 3 3 3 3 1 0 0 0 0 0
3 3 3 3 3 3 2 1 1 0 0 0 1 2 1 0 0 0 0 1 1 3 5 6 6 6 6 6 6 6 4 3 3 3 3 3 2 1 0 0 0 0 0
3 3 3 3 3 3 1 0 0 0 0 1 2 2 1 0 0 0 0 0 0 2 4 6 6 6 6 6 6 6 4 2 2 3 3 3 1 0 0 0 0 0 0

GEFSGL_con_prob3kmehi_234.txt.gz
EHI
44 42 42 40 34 27 24 22 20 17 16 15 14 15 17 18 19 19 18 17 17 18 17 13 11 12 10 8 7 5 4 4 4 4 4 2 1 0 2 4 4 2 0
42 41 40 38 34 29 25 21 17 15 14 12 12 13 14 17 19 20 19 18 18 18 17 14 12 12 12 11 9 6 4 4 4 4 4 4 2 1 3 4 4 2 1
43 42 40 37 34 31 26 21 16 14 13 11 12 12 13 15 17 17 17 18 18 18 17 16 14 13 13 14 12 8 5 4 4 4 4 5 3 3 3 4 3 3 3
46 44 41 38 34 30 27 23 18 15 13 13 13 13 12 12 13 15 16 17 17 16 15 15 13 12 11 11 11 10 8 5 4 3 4 5 4 3 3 3 3 3 3
46 43 40 38 35 31 27 24 20 17 16 16 16 14 11 9 9 12 15 15 14 13 11 10 8 7 6 6 8 8 8 7 5 4 5 5 5 4 2 2 3 3 3
44 41 39 39 36 31 27 24 23 21 21 21 20 19 14 8 5 7 10 11 11 10 8 7 4 2 2 4 5 5 5 6 6 5 5 5 6 5 3 2 2 3 3
41 41 40 39 36 31 28 27 28 27 27 26 24 23 19 10 4 3 4 7 9 9 9 8 4 2 3 5 5 4 3 3 3 3 4 5 6 6 4 3 3 4 4
38 39 41 39 36 33 32 32 33 32 30 29 26 25 21 13 4 1 2 4 7 8 9 9 7 5 5 5 6 5 4 2 1 1 2 3 4 4 5 5 5 5 5
37 37 38 38 35 34 34 35 37 35 33 31 29 27 23 14 4 0 1 4 5 6 7 8 8 6 4 4 5 7 7 5 2 0 0 1 1 2 3 5 6 5 5
38 37 36 34 32 33 34 36 37 35 33 32 30 28 23 14 5 1 1 3 5 4 5 6 7 5 3 2 4 7 8 7 5 2 0 0 1 1 2 4 6 5 4
40 39 35 31 30 30 33 36 35 33 32 33 31 27 21 13 6 2 1 2 3 4 4 6 5 3 1 1 3 5 6 6 5 3 1 0 1 2 3 5 6 5 4
40 38 34 31 30 30 32 34 33 31 30 31 29 24 18 13 7 2 1 1 2 3 5 6 4 1 0 0 1 1 2 2 3 3 1 1 2 3 3 4 5 4 4
36 34 32 31 31 32 32 31 28 26 25 24 24 21 17 13 8 5 2 1 1 2 4 4 3 1 0 0 0 0 0 0 1 1 2 2 2 3 3 3 4 3 3
31 29 28 28 29 31 31 27 24 22 21 20 19 18 17 14 11 8 5 3 1 2 2 2 1 0 0 0 0 0 0 0 0 1 2 3 3 3 3 3 3 3 3
29 25 24 24 26 26 25 22 20 18 18 17 16 16 14 10 8 8 7 5 3 2 1 1 0 0 0 0 0 1 1 1 1 1 3 3 3 3 3 3 3 3 3
28 25 21 21 22 22 21 18 14 12 10 9 10 11 8 5 3 3 3 3 2 2 2 1 2 2 1 0 0 0 1 1 2 3 3 3 3 3 3 3 3 3 3
29 26 22 21 21 22 20 18 14 9 6 4 4 4 2 1 0 0 0 0 0 1 2 2 3 4 3 2 1 1 1 2 3 3 3 3 3 3 3 3 3 3 3
29 27 24 23 22 22 21 19 17 14 11 8 4 1 0 0 0 0 0 0 0 0 1 3 3 4 5 4 3 3 2 3 4 4 4 3 3 3 3 3 3 3 3
27 26 24 23 22 22 20 19 18 16 14 12 9 4 1 0 0 0 0 0 0 0 1 2 3 3 4 6 6 5 4 4 4 5 4 4 3 3 3 3 3 3 3
24 21 19 18 19 20 19 18 16 14 11 11 11 7 2 0 0 0 0 0 0 0 0 1 2 3 4 6 8 7 7 6 4 4 4 3 3 3 3 3 3 3 3
20 18 15 14 16 17 18 15 12 10 9 8 8 6 2 1 1 0 0 1 1 1 1 0 1 2 4 6 8 9 8 7 6 4 4 3 3 3 3 3 3 3 3
17 16 14 14 15 16 15 12 9 8 7 5 4 2 1 2 2 1 0 1 2 2 2 1 0 1 3 5 7 8 8 7 7 6 5 4 3 3 3 3 3 3 3
14 12 12 14 15 14 13 10 7 6 5 4 2 0 1 3 3 2 1 0 1 1 1 1 0 0 2 4 5 7 7 7 7 6 6 5 4 3 3 3 3 3 3
11 10 10 12 14 12 10 8 7 6 5 4 3 1 1 3 3 2 1 1 0 0 0 0 0 0 0 1 3 5 6 6 6 6 6 6 5 4 3 3 3 3 3
12 10 9 9 9 8 6 6 6 6 6 4 2 1 0 1 2 2 3 2 1 0 0 0 0 0 0 1 2 2 3 4 4 5 6 6 4 3 3 3 3 3 3
13 11 9 7 6 5 4 4 5 6 5 3 1 0 0 0 1 2 3 2 1 0 0 0 0 0 1 2 2 1 1 1 2 3 5 6 4 3 3 3 3 3 3

GEFSGL_con_prob3kmehi_240.txt.gz
EHI
26 22 18 18 19 15 9 5 3 3 3 3 4 5 6 6 6 6 6 6 6 5 3 2 2 2 2 2 1 0 0 0 0 0 0 0 0 0 0 0 0 0 0
28 25 21 18 16 12 8 4 3 3 3 3 4 5 6 6 6 6 6 6 6 4 2 1 1 1 1 1 0 0 0 0 0 0 0 0 0 0 0 0 0 0 0
30 28 24 19 14 9 6 4 3 3 2 2 3 3 4 5 6 6 6 6 4 2 0 0 0 0 0 0 0 0 0 0 0 0 0 0 0 0 0 0 0 0 0
27 27 25 22 16 10 7 5 3 1 1 1 2 2 2 3 4 4 5 5 3 1 0 0 0 0 0 0 0 0 0 0 0 0 0 0 0 0 0 0 0 0 0
25 25 25 23 19 14 9 6 4 3 2 3 3 3 3 3 3 4 4 3 1 0 0 0 0 0 0 0 0 0 0 0 0 0 0 0 0 0 0 0 0 0 0
24 24 23 22 19 15 12 9 7 7 6 6 5 4 3 3 3 3 3 2 1 0 0 0 0 0 0 0 0 0 0 0 0 0 0 0 0 0 0 0 0 0 0
24 24 23 22 19 16 15 13 10 9 9 8 6 4 3 2 1 1 1 1 1 0 0 0 0 1 1 0 0 0 0 0 0 0 0 0 0 0 0 0 0 0 0
23 24 25 23 20 18 17 15 13 12 10 9 6 4 3 2 0 0 0 0 0 0 0 0 0 1 2 1 0 0 0 0 0 0 0 0 0 0 0 0 0 0 0
23 25 26 24 21 20 20 18 16 15 13 10 8 5 3 2 1 0 0 0 0 0 0 0 0 1 1 1 1 1 0 0 0 0 0 0 0 0 0 0 0 0 0
24 24 24 22 21 21 21 20 19 18 16 13 9 6 4 4 2 1 0 0 1 1 1 1 1 1 1 0 1 1 0 0 0 0 0 0 0 0 0 0 0 0 0
21 20 18 16 17 18 19 19 20 20 19 16 11 7 6 5 4 1 0 0 1 2 3 4 3 2 0 0 0 0 0 0 0 0 0 0 0 0 0 0 0 0 0
16 14 11 11 13 14 15 17 20 22 21 18 13 9 7 6 5 2 0 0 1 1 2 4 3 1 0 0 0 0 0 0 0 0 0 0 0 0 0 0 0 0 0
11 9 7 8 9 10 12 14 18 20 19 17 14 11 9 8 5 3 1 0 0 0 1 2 2 1 0 0 0 0 0 0 0 0 0 0 0 0 0 0 0 0 0
8 7 6 6 6 7 9 11 13 16 17 16 14 13 11 10 7 4 2 1 0 0 0 1 1 0 0 0 0 0 0 0 0 0 0 0 0 0 0 0 0 0 0
7 7 6 6 5 6 7 8 9 11 13 13 11 11 11 10 7 4 2 1 0 0 0 0 0 0 0 0 0 0 0 0 0 0 0 0 0 0 0 0 0 0 0
7 7 6 6 5 5 6 5 6 7 7 7 6 6 7 7 5 2 1 1 0 0 0 0 0 0 0 0 0 0 0 0 0 0 0 0 0 0 0 0 0 0 0
7 7 6 5 5 5 5 5 5 4 3 2 1 2 2 2 1 0 0 0 0 0 0 0 1 0 0 0 0 0 1 1 0 0 0 0 0 0 0 0 0 0 0
8 8 7 6 5 4 4 4 5 5 3 1 1 0 0 0 0 0 0 0 0 0 0 0 0 0 0 0 0 0 1 1 1 1 0 0 0 0 0 0 0 0 0
9 9 9 8 7 5 4 4 5 5 4 3 3 1 0 0 0 0 0 0 0 0 0 0 0 0 0 0 0 0 0 1 1 1 0 0 0 0 0 0 0 0 0
10 10 10 9 8 7 6 5 5 5 5 5 4 2 1 0 0 0 0 0 0 0 0 0 0 0 0 0 0 0 0 0 1 1 0 0 0 0 0 0 0 0 0
10 10 10 9 9 8 6 5 4 4 4 4 3 2 1 0 0 0 0 0 0 0 0 0 0 0 0 0 0 0 0 0 0 0 0 0 0 0 0 0 0 0 0
10 9 9 8 8 6 5 4 3 3 3 2 1 1 0 0 0 0 0 0 0 0 0 0 0 0 0 0 0 0 0 0 0 0 0 0 0 0 0 1 1 1 1
10 9 8 7 7 6 4 3 3 3 3 1 0 0 0 0 0 0 0 0 0 0 0 0 0 0 0 0 0 0 0 0 0 0 0 0 0 0 0 1 2 2 2
12 9 7 6 6 5 4 3 3 3 2 1 0 0 0 0 0 0 0 0 0 0 0 0 0 0 0 0 0 0 0 0 0 0 0 0 0 0 0 0 1 3 3
13 11 8 6 5 4 3 3 3 3 1 0 0 0 0 0 0 0 0 0 0 0 0 0 0 0 0 0 0 0 0 0 0 0 0 0 0 0 0 0 1 2 2
13 12 9 5 4 4 3 3 3 2 1 0 0 0 0 0 0 0 0 0 0 0 0 0 0 0 0 0 0 0 0 0 0 0 0 0 0 0 0 0 0 1 1

GEFSGL_con_prob3kmehi_246.txt.gz
EHI
9 9 9 8 7 6 6 4 1 1 2 3 3 3 3 3 3 3 3 3 3 3 3 1 0 0 0 0 0 0 0 0 0 0 0 0 0 0 0 0 0 0 0
11 9 8 7 7 6 6 4 2 1 3 3 3 3 3 3 3 3 3 3 3 4 4 3 1 0 0 0 0 0 0 0 0 0 0 0 0 0 0 0 0 0 0
13 12 9 7 6 6 6 5 3 3 3 3 3 3 3 3 3 3 3 3 4 5 6 4 1 0 0 0 0 0 0 0 0 0 0 0 0 0 0 0 0 0 0
15 14 11 8 6 6 6 6 5 4 3 3 2 2 3 3 3 2 3 3 4 6 6 4 1 0 0 0 0 0 0 0 0 0 0 0 0 0 0 0 0 0 0
16 15 12 9 7 6 6 7 6 5 3 1 1 1 1 2 1 1 1 3 5 6 5 3 1 0 0 0 0 0 0 0 0 0 0 0 0 0 0 0 0 0 0
15 15 14 12 11 10 10 9 8 5 3 1 1 0 0 0 0 0 1 2 4 4 4 2 0 0 0 0 0 0 0 0 0 0 0 0 0 0 0 0 0 0 0
13 14 15 16 16 16 14 12 10 7 4 3 3 1 0 0 0 0 0 1 2 3 3 2 1 0 0 0 0 0 0 0 0 0 0 0 0 0 0 0 0 0 0
9 10 12 14 16 16 14 12 12 10 8 7 5 3 2 0 0 0 0 0 1 1 1 2 1 0 0 0 0 1 1 0 0 0 0 0 0 0 0 0 0 0 0
6 7 8 10 11 12 12 11 12 12 11 10 8 6 4 2 1 0 0 0 0 0 0 1 1 0 0 0 1 2 2 1 1 0 0 0 0 0 0 0 0 0 0
6 6 7 7 7 8 8 8 9 11 12 12 10 7 6 5 2 1 0 1 1 1 1 1 1 0 0 0 1 2 3 3 2 1 0 0 0 0 0 0 0 0 0
6 6 6 5 5 5 5 6 7 9 9 10 9 7 6 6 3 1 0 2 3 3 3 2 2 1 0 0 0 1 2 2 2 1 0 0 0 0 0 0 0 0 0
7 6 4 4 4 4 4 4 6 7 7 8 7 7 6 6 4 1 0 1 2 3 3 3 2 1 0 0 0 0 1 1 1 0 0 0 0 0 0 0 0 0 0
7 6 4 4 4 5 5 5 6 7 7 8 8 8 8 7 5 2 1 0 0 1 2 1 1 0 0 0 0 0 0 0 0 0 0 0 0 0 0 0 0 0 0
6 6 5 4 4 4 5 6 6 7 8 9 10 11 10 8 6 5 4 2 1 1 1 1 0 0 0 0 0 0 0 0 0 0 0 0 0 0 0 0 0 0 0
4 4 4 4 4 3 4 4 5 6 7 8 9 10 9 7 6 6 5 3 2 2 2 2 1 1 1 1 1 1 0 0 0 0 0 0 0 0 0 0 0 0 0
1 2 3 3 3 3 3 3 4 4 4 4 5 5 5 4 3 3 2 2 1 2 2 2 3 2 2 2 2 2 1 0 0 0 0 0 0 0 0 0 0 0 0
1 1 1 1 1 3 3 3 3 3 2 1 1 1 1 1 1 1 0 0 0 0 1 2 3 3 3 3 3 3 1 0 0 0 0 0 0 0 0 0 0 0 0
2 2 1 1 1 2 3 3 3 3 2 1 0 0 0 0 0 0 0 0 0 0 1 2 3 3 3 3 3 3 2 1 1 1 1 1 2 1 0 0 0 0 0
3 3 3 2 2 2 2 3 3 3 3 2 1 0 0 0 0 0 0 0 1 1 1 3 3 3 3 3 3 3 2 1 1 2 2 2 3 2 1 0 0 0 0
2 3 3 3 3 2 1 1 2 2 2 2 1 0 0 0 0 0 0 0 1 2 3 3 3 2 2 2 2 2 1 0 0 1 1 2 3 3 1 0 0 0 0
1 2 3 3 3 2 1 0 1 1 1 1 0 0 0 0 0 0 0 0 1 2 2 2 1 1 1 1 1 1 0 0 0 0 0 1 2 2 2 1 0 0 0
2 3 3 3 3 2 1 0 0 0 0 0 0 0 0 0 0 0 0 0 0 1 1 1 0 0 0 0 0 0 0 0 0 0 0 0 1 1 2 2 1 0 0
3 3 3 3 3 2 0 0 0 0 0 0 0 0 0 0 0 0 0 0 0 0 0 0 0 0 0 0 0 0 0 0 0 0 0 0 0 1 1 1 1 1 1
3 3 3 3 3 2 1 0 0 0 1 1 1 0 0 0 0 0 0 0 0 0 0 0 0 0 0 0 0 0 0 0 0 0 0 0 0 0 0 0 1 2 2
4 4 4 4 4 3 1 1 0 0 1 2 2 1 0 0 0 0 0 0 0 0 0 0 0 0 0 0 0 0 0 0 0 0 0 0 0 0 0 0 0 1 1
4 5 5 5 5 3 2 2 1 0 1 2 2 2 1 0 0 0 0 0 0 0 0 0 0 0 0 0 0 0 0 0 0 0 0 0 0 0 0 0 0 0 0